Погода в Перевозе

Россия / Иркутская область     59°00′06″N   116°55′11″E
темп.,
°C
ветер,
м/с
пор.,
м/с
влажн.,
%
обл.,
%
осадки,
мм/ч
давл.,
гПа
погр.,
м
9 марта, вт
вт923:00−12з31485100 0.0 1017748
02:00−17зюз238883 0.0 101927
05:00−20зюз22920 0.0 102128
08:00−19зюз22940 0.0 102241
11:00−12юз268223 0.0 1018628
14:00−9ююз387355 0.0 1013947
17:00−9ююз2383100 0.0 1008121
20:00−12зюз2484100 0.0 1008129
10 марта, ср
ср1023:00−13зюз2289100 0.0 100731
02:00−13зюз3891100 0.0 1008196
05:00−16з4168063 0.0 1013718
08:00−15зюз6158163 0.0 10171157
11:00−12з9157370 0.0 10181742
14:00−11з9166885 0.1 10181819
17:00−12з71472100 0.0 10191394
20:00−16зюз3108580 0.0 1021237
11 марта, чт
чт1123:00−16зюз2294100 0.0 102038
02:00−14юз1197100 0.2 101928
05:00−17зюз1295100 0.0 101920
08:00−15зюз129592 0.0 102026
11:00−9зюз398360 0.0 1019796
14:00−6зюз6107765 0.1 10181301
17:00−7зюз41081100 0.1 1017970
20:00−9юз2285100 0.1 101626
12 марта, пт
пт1223:00−10ю1289100 0.0 101222
02:00−9ююз2288100 0.0 100852
05:00−10зюз3198497 0.0 1007566
08:00−8зюз3168998 0.0 1008725
11:00−2зюз101775100 0.0 10071567
14:00−1зюз101871100 0.1 10071683
17:00−4з81670100 0.0 10091096
20:00−10зюз2384100 0.0 101259
13 марта, сб
сб1323:00−14зюз128967 0.0 101320
02:00−16зюз129351 0.0 101220
05:00−17ю129557 0.0 100920
08:00−14юз119065 0.0 100432
11:00−5зюз4129072 0.3 10001048
14:00−4з10196386 0.6 10002205
17:00−8з5127019 0.0 1002953
20:00−14з358243 0.0 1005111